Wind_Speed
38 28 30 31 20 19 17 14 11 17 19 18 16 17 21 23 22 23 21 23 30 34 37 31 30 29 29 29 30 29 38 41 43 43 56 50 51 47 40 45 45 58 51
30 28 31 22 17 12 19 14 14 17 18 17 18 20 21 23 22 20 18 23 27 30 34 34 21 28 24 26 32 33 32 39 41 44 50 48 50 45 48 48 38 58 60
30 32 28 20 18 10 9 8 9 10 12 13 16 18 19 21 23 20 20 20 22 28 31 32 31 25 18 23 26 31 36 35 40 44 34 48 40 46 48 44 43 53 49
29 31 24 15 14 8 11 13 14 15 18 20 23 23 23 24 23 20 17 15 16 22 27 29 26 29 20 17 20 26 27 27 25 24 35 35 40 38 50 51 60 57 43
27 25 19 13 8 4 6 13 18 21 24 26 24 23 24 24 23 20 18 16 15 14 16 20 22 23 24 24 17 21 37 24 26 28 22 22 25 36 40 54 57 50 59
22 20 15 12 12 10 12 15 21 25 24 21 20 19 19 18 19 18 16 16 16 16 15 16 19 19 19 21 22 17 21 27 21 23 24 22 26 30 44 44 59 58 64
20 19 13 11 13 16 17 19 18 17 16 16 16 16 16 16 16 15 14 15 16 19 20 18 17 19 19 19 20 25 19 18 25 19 21 23 23 29 32 39 47 59 64
20 19 21 17 16 14 13 12 12 13 15 16 16 17 18 18 17 17 17 17 18 20 21 23 26 23 21 22 23 26 27 27 27 26 23 18 21 22 25 29 36 63 72
21 19 18 17 15 14 14 14 15 15 16 18 18 18 19 19 18 18 18 17 19 20 21 24 28 29 28 26 26 28 30 33 31 27 23 25 26 20 22 29 46 67 71
21 20 19 18 17 16 15 15 16 17 18 18 19 19 19 19 19 20 21 21 21 22 24 24 24 28 29 30 31 31 32 34 34 35 30 27 23 28 28 30 31 34 63
24 22 21 21 21 21 19 18 19 19 18 18 18 20 22 22 20 21 22 23 24 26 27 25 25 26 28 29 33 35 36 36 39 39 38 38 35 34 32 29 27 31 38
30 25 24 24 24 24 23 22 21 21 20 19 19 17 18 20 20 20 20 22 24 26 29 30 29 28 30 33 36 37 38 38 41 43 41 42 43 44 41 40 34 32 32
36 30 28 27 27 26 26 24 23 23 22 21 20 19 18 18 18 19 20 21 23 25 27 29 30 31 32 36 38 40 40 39 43 45 43 44 46 42 42 40 36 36 38
38 34 30 29 28 27 27 26 25 24 23 23 22 21 19 18 19 19 20 22 23 24 25 26 30 33 34 33 30 33 37 39 43 44 42 42 44 42 43 46 41 41 37
39 32 32 31 29 28 28 27 26 26 27 26 25 25 23 21 20 21 22 23 25 25 25 26 28 29 30 28 28 28 32 35 38 40 40 41 43 44 38 40 40 42 42
41 35 34 33 29 31 30 28 28 28 27 27 27 27 25 25 24 23 22 23 25 26 25 27 27 26 25 25 21 22 29 36 39 39 39 35 43 45 44 40 39 41 39
42 38 33 34 35 35 31 31 29 27 27 26 27 27 28 27 25 25 24 23 25 26 26 26 27 25 23 21 20 17 19 21 24 28 34 32 37 36 43 43 42 37 36
43 39 33 31 30 31 34 36 36 35 30 26 26 28 28 28 25 24 25 24 23 25 26 26 26 24 23 20 20 16 17 21 26 29 30 29 37 41 42 38 37 39 38
28 32 32 33 33 30 28 28 27 25 24 27 26 25 25 28 26 24 24 25 24 23 24 25 25 24 21 20 19 18 16 17 24 24 24 26 29 31 32 31 36 41 40
32 32 31 30 29 29 28 28 29 29 27 28 28 30 30 29 27 25 23 24 25 22 22 24 24 23 20 19 19 18 21 23 22 22 25 28 27 25 29 30 31 38 38
28 30 30 29 32 33 33 33 33 33 34 34 33 32 30 31 31 29 26 24 24 24 23 22 23 22 19 18 18 17 19 24 27 26 26 28 29 29 27 25 28 29 30
29 30 30 29 29 30 33 36 37 37 36 36 36 33 32 31 30 31 29 26 25 24 23 23 23 22 19 18 17 16 16 21 25 27 29 29 30 31 31 31 31 31 32
32 34 36 37 38 37 36 37 38 38 38 37 38 38 36 34 32 31 30 28 26 25 23 23 23 21 19 18 17 16 14 17 23 26 28 30 32 34 35 35 35 36 37
31 33 36 38 38 38 38 39 39 39 40 40 39 39 39 36 35 33 31 29 26 25 24 23 24 22 20 17 18 16 15 14 21 25 26 27 29 32 35 37 38 39 40
37 36 36 37 38 38 37 36 37 41 44 45 45 43 40 39 37 34 31 29 27 26 24 23 23 24 21 17 18 17 16 16 17 25 28 28 30 30 31 34 34 35 37
33 33 33 33 34 35 36 36 34 32 31 33 36 38 39 40 40 36 32 30 27 25 24 22 23 25 21 17 17 17 16 17 18 23 27 27 28 28 29 32 33 34 35
Wind_Direction
319 320 320 318 321 344 351 344 335 325 316 319 324 321 314 316 303 295 284 272 267 265 279 248 246 257 233 236 223 227 244 229 228 233 220 228 230 233 227 237 235 233 239
317 318 324 309 323 320 332 344 329 314 310 308 302 304 304 310 301 292 285 278 275 269 275 275 257 246 253 258 246 242 220 240 237 232 228 227 224 229 229 229 226 237 233
312 316 314 303 318 306 309 314 304 313 318 309 306 305 303 305 302 300 277 280 286 271 274 278 283 266 278 242 244 250 244 231 224 231 230 224 229 237 223 240 230 232 231
310 312 308 292 299 306 291 284 300 307 306 306 306 305 303 300 305 305 301 294 280 272 270 270 273 274 267 270 234 232 235 223 220 241 228 232 233 229 232 233 224 225 236
313 305 306 287 292 302 294 288 293 298 301 304 307 306 303 301 301 301 304 308 303 295 283 274 271 262 269 273 266 236 234 239 230 231 213 218 220 224 227 230 231 224 224
313 313 302 296 259 273 284 289 293 298 302 308 308 308 304 303 306 311 312 310 309 307 299 290 277 272 263 265 252 246 256 228 234 244 236 224 233 227 225 229 231 230 209
310 311 301 298 267 268 283 292 297 300 306 308 313 314 312 311 312 318 322 325 319 312 306 298 290 279 267 257 254 257 244 236 242 242 241 231 242 238 226 231 232 228 227
299 296 294 293 286 283 284 291 296 302 304 305 307 307 308 306 305 308 312 318 325 322 308 293 290 284 273 262 251 248 244 238 243 234 228 231 247 250 243 236 228 222 223
292 290 288 288 285 280 283 290 298 301 305 306 306 307 303 301 300 303 308 316 318 317 317 302 286 277 277 273 259 251 248 248 244 240 236 232 234 232 255 237 230 222 224
286 283 281 279 279 277 281 288 293 297 301 305 309 310 309 311 310 308 307 312 316 318 317 312 296 285 273 269 270 267 258 252 247 241 237 232 228 240 251 241 234 231 234
282 276 275 275 274 275 279 283 288 292 298 303 308 310 310 309 310 308 310 312 314 317 311 303 293 282 278 273 266 261 261 256 253 247 236 232 230 235 238 241 235 244 248
281 275 272 271 273 276 280 287 291 295 298 300 302 306 308 310 312 313 314 315 315 314 311 307 299 284 275 278 275 264 257 253 251 250 246 236 221 230 231 234 242 245 250
283 273 270 270 271 273 277 281 285 291 296 298 300 302 301 306 312 318 322 324 322 320 318 312 304 296 289 281 274 264 253 249 246 245 242 240 234 226 234 235 239 240 247
291 278 273 269 269 271 273 276 280 285 289 292 295 298 302 308 313 320 324 330 329 326 322 314 308 303 298 289 271 259 251 243 242 241 239 237 224 226 228 232 232 237 235
290 290 278 269 269 269 270 272 274 278 281 284 287 291 297 305 313 321 326 331 334 331 330 322 317 305 299 287 278 255 242 238 237 235 231 228 219 225 227 225 229 233 236
286 290 292 271 274 270 268 267 270 273 277 283 288 292 295 303 308 313 322 328 331 332 332 328 325 314 302 294 276 260 249 241 237 232 227 218 221 219 224 222 230 230 228
275 281 296 287 279 267 267 270 267 267 274 279 284 288 292 296 301 306 311 319 326 331 333 330 328 319 309 299 287 276 243 216 223 219 210 217 211 212 221 223 231 217 219
261 269 284 283 279 277 274 268 265 264 265 273 277 282 285 287 294 300 305 310 318 327 334 332 328 322 316 301 294 273 237 232 214 206 211 216 215 216 220 228 229 209 211
269 270 271 273 278 275 273 271 268 270 275 277 285 286 284 285 290 295 300 304 312 320 329 331 325 323 313 302 291 266 248 216 205 213 223 220 217 217 220 227 226 214 217
283 275 274 275 272 273 274 275 276 275 273 274 280 285 288 286 287 289 293 300 307 316 323 327 325 321 311 300 290 269 241 229 223 226 228 218 217 218 220 221 217 212 213
274 276 279 280 276 276 277 276 274 273 273 273 275 278 282 286 289 291 293 297 301 309 316 320 321 315 311 295 286 289 255 233 229 235 225 219 217 216 215 217 218 212 214
273 277 278 276 274 269 270 272 271 271 271 271 273 275 278 279 282 286 288 290 295 302 308 311 313 310 307 292 284 279 279 243 234 232 225 219 217 214 215 219 218 214 213
281 277 278 281 281 277 275 272 272 271 270 268 268 270 272 274 276 278 282 283 285 291 299 302 305 305 297 291 279 270 273 252 232 225 222 219 216 215 216 217 216 216 215
286 282 277 277 276 273 271 268 268 268 269 269 267 266 267 270 271 273 275 278 278 281 288 293 297 299 288 287 272 266 255 252 230 220 215 214 215 216 216 215 214 212 211
290 286 282 280 280 281 281 277 272 269 267 267 267 265 265 264 265 267 270 272 271 271 277 286 291 294 284 278 267 261 254 240 230 214 208 208 211 212 212 211 210 209 208
292 289 288 287 284 281 279 277 276 275 273 269 266 265 263 262 261 261 261 263 263 264 269 277 283 286 278 269 263 251 252 238 225 213 206 203 202 199 203 206 206 205 202
Height
3019 3014 3009 3004 3000 2995 2989 2985 2984 2983 2981 2978 2975 2973 2970 2967 2963 2960 2960 2961 2961 2961 2961 2961 2961 2961 2957 2962 2965 2968 2974 2977 2984 2992 3001 3010 3014 3024 3033 3037 3047 3052 3059
3013 3009 3004 2998 2996 2991 2987 2984 2983 2980 2978 2975 2972 2970 2967 2963 2960 2957 2956 2956 2955 2954 2953 2949 2947 2947 2950 2954 2956 2961 2966 2970 2974 2981 2988 2995 3002 3012 3020 3026 3035 3041 3047
3008 3003 2999 2994 2991 2987 2985 2982 2979 2976 2974 2972 2969 2966 2963 2959 2956 2953 2951 2949 2948 2947 2946 2944 2944 2944 2947 2949 2951 2954 2960 2961 2965 2973 2976 2982 2990 2999 3008 3014 3023 3028 3040
3003 2999 2994 2990 2987 2983 2982 2980 2978 2975 2972 2969 2966 2962 2958 2955 2951 2948 2945 2943 2941 2941 2941 2940 2940 2940 2940 2943 2945 2947 2953 2955 2960 2964 2966 2971 2979 2987 2995 3003 3010 3019 3027
2998 2994 2989 2985 2983 2979 2977 2977 2975 2972 2968 2964 2960 2956 2953 2949 2946 2944 2941 2939 2937 2937 2936 2935 2935 2937 2937 2935 2938 2940 2945 2949 2954 2958 2960 2963 2970 2977 2983 2992 3001 3011 3020
2993 2989 2985 2981 2979 2976 2974 2972 2970 2967 2964 2959 2956 2952 2949 2945 2942 2939 2937 2936 2934 2933 2932 2932 2931 2931 2929 2932 2935 2936 2940 2943 2948 2949 2954 2955 2965 2971 2977 2983 2990 2998 3007
2987 2985 2981 2977 2974 2972 2970 2968 2965 2962 2959 2956 2953 2949 2946 2942 2938 2936 2934 2932 2930 2928 2926 2926 2926 2927 2928 2930 2931 2931 2936 2938 2942 2945 2948 2949 2957 2964 2970 2975 2979 2989 2998
2982 2979 2977 2973 2971 2968 2966 2963 2961 2958 2956 2953 2950 2946 2943 2940 2936 2933 2930 2928 2926 2924 2923 2922 2920 2921 2922 2922 2924 2928 2931 2935 2939 2940 2943 2945 2952 2957 2961 2968 2973 2984 2989
2977 2974 2972 2969 2965 2963 2961 2959 2957 2954 2951 2949 2945 2942 2940 2936 2932 2929 2927 2924 2922 2921 2919 2916 2914 2914 2913 2913 2917 2920 2923 2927 2930 2932 2935 2939 2944 2949 2954 2959 2964 2972 2981
2970 2968 2966 2963 2961 2959 2956 2954 2952 2949 2947 2944 2940 2937 2935 2932 2927 2925 2922 2919 2916 2915 2913 2910 2909 2906 2907 2908 2907 2909 2913 2916 2918 2923 2927 2929 2935 2942 2946 2952 2956 2962 2971
2964 2961 2959 2957 2955 2954 2951 2948 2947 2944 2941 2938 2935 2932 2928 2926 2922 2920 2916 2913 2910 2907 2905 2903 2902 2900 2899 2900 2900 2902 2902 2903 2906 2911 2915 2920 2928 2934 2939 2944 2949 2955 2960
2955 2954 2951 2949 2948 2947 2944 2942 2939 2938 2935 2932 2929 2927 2923 2920 2916 2914 2910 2906 2903 2900 2897 2893 2891 2890 2888 2888 2887 2888 2890 2891 2894 2896 2901 2908 2916 2922 2928 2935 2940 2946 2953
2946 2945 2943 2942 2940 2939 2937 2934 2932 2930 2928 2926 2923 2920 2919 2915 2912 2908 2904 2900 2896 2892 2888 2884 2880 2877 2875 2874 2871 2870 2874 2877 2880 2884 2890 2896 2903 2913 2921 2926 2933 2938 2943
2936 2935 2934 2932 2931 2929 2928 2926 2924 2922 2920 2918 2916 2914 2911 2909 2905 2902 2898 2894 2890 2886 2881 2877 2872 2866 2862 2859 2859 2859 2861 2865 2869 2873 2879 2886 2894 2900 2907 2914 2922 2927 2932
2925 2925 2923 2921 2921 2919 2918 2917 2916 2914 2912 2910 2908 2906 2903 2901 2899 2895 2890 2886 2882 2878 2873 2869 2864 2858 2854 2851 2849 2848 2850 2853 2857 2861 2866 2872 2881 2890 2896 2903 2910 2915 2920
2914 2914 2913 2911 2911 2909 2909 2908 2906 2905 2903 2902 2900 2897 2896 2893 2890 2888 2884 2880 2876 2871 2866 2861 2856 2851 2847 2843 2840 2840 2840 2842 2846 2850 2856 2865 2872 2879 2887 2893 2899 2905 2909
2903 2903 2903 2901 2899 2898 2898 2897 2897 2897 2895 2893 2892 2890 2887 2885 2883 2880 2877 2874 2870 2865 2860 2855 2850 2845 2841 2838 2835 2833 2833 2834 2838 2844 2852 2858 2865 2870 2878 2884 2890 2895 2901
2889 2891 2892 2890 2889 2888 2887 2886 2885 2884 2885 2885 2884 2882 2880 2878 2875 2872 2870 2867 2864 2859 2854 2849 2845 2840 2836 2833 2831 2829 2829 2830 2834 2840 2847 2852 2857 2864 2869 2874 2880 2886 2893
2881 2880 2879 2879 2878 2878 2876 2875 2874 2873 2873 2873 2873 2873 2871 2869 2866 2864 2862 2860 2857 2853 2848 2844 2839 2835 2832 2829 2827 2826 2826 2828 2831 2835 2839 2845 2850 2856 2861 2866 2871 2877 2885
2872 2870 2868 2868 2868 2867 2866 2865 2864 2864 2863 2862 2862 2860 2860 2859 2858 2856 2854 2852 2849 2846 2842 2838 2835 2831 2827 2825 2824 2823 2823 2825 2828 2831 2834 2838 2844 2849 2853 2859 2862 2869 2877
2860 2858 2857 2856 2856 2856 2855 2854 2854 2853 2853 2852 2851 2850 2849 2847 2847 2846 2845 2843 2841 2838 2835 2832 2830 2827 2823 2821 2820 2819 2818 2820 2823 2826 2829 2833 2837 2843 2848 2853 2858 2864 2871
2849 2847 2846 2844 2844 2843 2842 2842 2842 2841 2840 2840 2840 2839 2839 2838 2837 2836 2836 2835 2833 2831 2829 2827 2824 2821 2819 2817 2816 2815 2813 2814 2816 2819 2823 2827 2831 2836 2841 2847 2853 2858 2863
2839 2837 2834 2833 2831 2830 2829 2829 2828 2827 2827 2827 2827 2827 2827 2827 2827 2826 2826 2825 2824 2823 2822 2820 2818 2816 2813 2811 2811 2810 2809 2809 2810 2813 2816 2820 2824 2829 2834 2840 2846 2851 2857
2827 2824 2822 2819 2818 2817 2815 2814 2814 2813 2813 2813 2813 2813 2813 2814 2815 2815 2815 2815 2815 2814 2814 2813 2811 2809 2808 2805 2805 2805 2805 2805 2805 2807 2810 2813 2817 2822 2827 2833 2838 2845 2852
2813 2810 2808 2805 2803 2801 2800 2799 2798 2798 2797 2797 2798 2799 2800 2801 2802 2803 2804 2805 2805 2805 2806 2805 2804 2803 2801 2799 2799 2799 2799 2800 2801 2803 2805 2808 2811 2816 2821 2826 2832 2838 2844
2800 2797 2794 2792 2790 2788 2786 2785 2785 2784 2783 2783 2783 2784 2785 2786 2788 2790 2793 2794 2795 2796 2797 2796 2796 2796 2795 2793 2793 2794 2794 2794 2795 2797 2800 2803 2807 2811 2817 2822 2827 2833 2839